This demonstration page uses our WeatherBlox Daily Observations layout. Learn more.

Left ArrowRight Arrow

Hourly Observations for March 7, 2018

Temp ( °F °C ) Dew Point ( °F °C ) Humidity (%) Winds ( mph kmh ) Pressure ( in mb ) Visibility ( mi km ) Precip ( " mm )
12:04 am 00:04 Partly Cloudy 26 -3.3 17 -8.3 69 69 NNW 20 31 30.33 1027 10 16 0.00 0.00
12:54 am 00:54 Clear 25 -3.9 18 -7.8 75 75 NNW 10 17 30.29 1026 10 16 0.00 0.00
1:54 am 01:54 Mostly Clear 25 -3.9 18 -7.8 75 75 NW 13 20 30.29 1026 10 16 0.00 0.00
2:09 am 02:09 Mostly Cloudy 25 -3.9 18 -7.8 75 75 NW 12 19 30.33 1027 10 16 0.00 0.00
2:54 am 02:54 Mostly Clear 25 -3.9 18 -7.8 75 75 NW 10 17 30.26 1025 10 16 0.00 0.00
3:21 am 03:21 Mostly Cloudy 25 -3.9 18 -7.8 75 75 NW 7 11 30.30 1026 10 16 0.00 0.00
3:54 am 03:54 Cloudy 26 -3.3 19 -7.2 75 75 NW 13 20 30.25 1025 10 16 0.00 0.00
4:54 am 04:54 Cloudy 27 -2.8 19 -7.2 72 72 NW 14 22 30.26 1025 10 16 0.00 0.00
5:27 am 05:27 Cloudy 27 -2.8 19 -7.2 72 72 NW 14 22 30.33 1027 10 16 0.00 0.00
5:54 am 05:54 Cloudy 27 -2.8 19 -7.2 72 72 NNW 14 22 30.27 1025 10 16 0.00 0.00
6:22 am 06:22 Cloudy 27 -2.8 20 -6.7 75 75 NW 9 15 30.33 1027 10 16 0.00 0.00
6:33 am 06:33 Cloudy 27 -2.8 19 -7.2 72 72 NW 10 17 30.33 1027 10 16 0.00 0.00
6:54 am 06:54 Cloudy 27 -2.8 20 -6.7 75 75 NW 9 15 30.27 1025 10 16 0.00 0.00
7:54 am 07:54 Cloudy 27 -2.8 19 -7.2 72 72 NW 14 22 30.27 1025 10 16 0.00 0.00
8:28 am 08:28 Cloudy 27 -2.8 20 -6.7 75 75 NW 17 28 30.33 1027 10 16 0.00 0.00
8:54 am 08:54 Cloudy 27 -2.8 19 -7.2 72 72 NW 17 28 30.28 1025 10 16 0.00 0.00
9:49 am 09:49 Cloudy 27 -3 19 -7 74 74 NW 18 30 30.33 1027 10 16 0.00 0.00
9:54 am 09:54 Cloudy 27 -2.8 19 -7.2 72 72 NW 16 26 30.28 1026 10 16 0.00 0.00
10:09 am 10:09 Cloudy 27 -2.8 19 -7.2 72 72 NW 18 30 30.33 1027 10 16 0.00 0.00
10:21 am 10:21 Cloudy 27 -2.8 18 -7.8 69 69 NW 20 31 30.33 1027 10 16 0.00 0.00
10:54 am 10:54 Cloudy 29 -1.7 19 -7.2 66 66 NW 16 26 30.28 1026 10 16 0.00 0.00
11:54 am 11:54 Mostly Cloudy 32 0 20 -6.7 61 61 WNW 16 26 30.27 1025 10 16 0.00 0.00
12:04 pm 12:04 Partly Cloudy 32 0 20 -6.7 61 61 undefined N/A 30.33 1027 10 16 0.00 0.00
12:54 pm 12:54 Mostly Sunny 35 1.7 19 -7.2 52 52 NNW 18 30 30.25 1024 10 16 0.00 0.00
1:54 pm 13:54 Mostly Sunny 36 2.2 20 -6.7 52 52 NNW 18 30 30.24 1024 10 16 0.00 0.00
2:54 pm 14:54 Sunny 38 3.3 19 -7.2 46 46 NW 20 31 30.22 1023 10 16 0.00 0.00
3:54 pm 15:54 Mostly Sunny 37 2.8 22 -5.6 54 54 NNW 21 33 30.23 1024 10 16 0.00 0.00
4:54 pm 16:54 Partly Cloudy 36 2.2 22 -5.6 57 57 NNW 16 26 30.24 1024 10 16 0.00 0.00
5:54 pm 17:54 Mostly Sunny 35 1.7 22 -5.6 59 59 NNW 16 26 30.26 1025 10 16 0.00 0.00
6:54 pm 18:54 Clear 32 0 20 -6.7 61 61 NNW 14 22 30.27 1025 10 16 0.00 0.00
7:54 pm 19:54 Clear 29 -1.7 19 -7.2 66 66 NNW 8 13 30.28 1025 10 16 0.00 0.00
8:54 pm 20:54 Clear 22 -5.6 17 -8.3 82 82 N 7 11 30.29 1026 10 16 0.00 0.00
9:54 pm 21:54 Clear 23 -5 17 -8.3 78 78 N 5 7 30.29 1026 10 16 0.00 0.00
10:54 pm 22:54 Clear 20 -6.7 16 -8.9 85 85 N 7 11 30.29 1026 10 16 0.00 0.00
11:54 pm 23:54 Clear 23 -5 17 -8.3 78 78 NNW 8 13 30.29 1026 10 16 0.00 0.00

Powered by AerisWeather